Time,TemperatureF,DewpointF,PressureIn,WindDirection,WindDirectionDegrees,WindSpeedMPH,WindSpeedGustMPH,Humidity,HourlyPrecipIn,Conditions,Clouds,dailyrainin,SolarRadiationWatts/m^2,SoftwareType,DateUTC
2013-07-27 00:30:00,61.0,44.0,-100.00,North,-999,0.0,0.0,52,-99.99,,,-99.99,0.000000,,2013-07-27 07:30:00,
2013-07-27 02:30:00,61.0,40.0,-100.00,East,85,1.0,2.0,45,-99.99,,,-99.99,0.000000,,2013-07-27 09:30:00,
2013-07-27 03:22:00,61.0,40.0,-100.00,East,85,1.0,2.0,45,-99.99,,,-99.99,0.000000,,2013-07-27 10:22:00,
2013-07-27 03:30:00,62.0,34.0,-100.00,SSW,202,1.0,3.0,35,-99.99,,,-99.99,0.000000,,2013-07-27 10:30:00,
2013-07-27 11:30:00,70.0,43.0,-100.00,SSW,203,4.0,10.0,37,-99.99,,,-99.99,683.000000,,2013-07-27 18:30:00,
2013-07-27 12:30:00,71.0,43.0,-100.00,SSW,206,4.0,11.0,36,-99.99,,,-99.99,732.000000,,2013-07-27 19:30:00,
2013-07-27 13:30:00,71.0,41.0,-100.00,SW,219,4.0,9.0,34,-99.99,,,-99.99,736.000000,,2013-07-27 20:30:00,
2013-07-27 14:22:00,71.0,41.0,-100.00,SW,219,4.0,9.0,34,-99.99,,,-99.99,736.000000,,2013-07-27 21:22:00,
2013-07-27 14:30:00,73.0,40.0,-100.00,SW,221,3.0,8.0,31,-99.99,,,-99.99,698.000000,,2013-07-27 21:30:00,
2013-07-27 15:30:00,72.0,39.0,-100.00,West,265,2.0,7.0,30,-99.99,,,-99.99,170.000000,,2013-07-27 22:30:00,
2013-07-27 16:22:00,72.0,39.0,-100.00,West,265,2.0,7.0,30,-99.99,,,-99.99,170.000000,,2013-07-27 23:22:00,
2013-07-27 16:30:00,72.0,40.0,-100.00,West,277,2.0,6.0,32,-99.99,,,-99.99,26.000000,,2013-07-27 23:30:00,
2013-07-27 17:22:00,72.0,40.0,-100.00,West,277,2.0,6.0,32,-99.99,,,-99.99,26.000000,,2013-07-28 00:22:00,
2013-07-27 17:30:00,70.0,41.0,-100.00,NNW,327,2.0,6.0,35,-99.99,,,-99.99,29.000000,,2013-07-28 00:30:00,
2013-07-27 18:30:00,68.0,41.0,-100.00,WNW,290,2.0,5.0,37,-99.99,,,-99.99,193.000000,,2013-07-28 01:30:00,
2013-07-27 19:22:00,68.0,41.0,-100.00,WNW,290,2.0,5.0,37,-99.99,,,-99.99,193.000000,,2013-07-28 02:22:00,
2013-07-27 19:30:00,64.0,42.0,-100.00,NW,304,2.0,4.0,44,-99.99,,,-99.99,36.000000,,2013-07-28 02:30:00,
2013-07-27 21:30:00,58.0,42.0,-100.00,WNW,296,0.0,1.0,55,-99.99,,,-99.99,0.000000,,2013-07-28 04:30:00,
2013-07-27 22:22:00,58.0,42.0,-100.00,WNW,296,0.0,1.0,55,-99.99,,,-99.99,0.000000,,2013-07-28 05:22:00,
2013-07-27 22:30:00,59.0,42.0,-100.00,SSW,198,1.0,2.0,52,-99.99,,,-99.99,0.000000,,2013-07-28 05:30:00,
2013-07-27 23:30:00,58.0,42.0,-100.00,SE,125,2.0,3.0,54,-99.99,,,-99.99,0.000000,,2013-07-28 06:30:00,